{"data":{"norad_id":53208,"intl_designator":"2022-084V","name":"STARLINK-4425","alt_names":[],"object_type":"PAYLOAD","status":"ACTIVE","operator":null,"country":"US","launch_date":"2022-07-22","launch_site_code":"AFWTR","launch_vehicle":null,"mission":null,"orbit_class":"UNKNOWN","rcs_meters":null,"size_class":null,"mass_kg":null,"dimensions":null,"purposes":["comms"],"wikipedia_slug":null,"has_3d_model":false,"image_url":null,"decayed_at":null,"tle_current":{"epoch":"2026-05-25T02:35:01.856832Z","epoch_age_seconds":55887,"freshness":"FRESH","line1":"1 53208U 22084V   26145.10766038 -.00001901  00000+0 -12770-3 0  9995","line2":"2 53208  97.4512 205.0397 0001350 143.2846 216.8474 15.05661597210809","mean_motion":15.05661597,"eccentricity":0.000135,"inclination_deg":97.4512,"raan_deg":205.0397,"arg_perigee_deg":143.2846,"mean_anomaly_deg":216.8474,"bstar":-0.0001277,"rev_number":21080,"period_min":95.639020273159,"perigee_km":548.54035392116,"apogee_km":550.4108093182,"semimajor_km":6927.6125816197,"source":"CELESTRAK","updated_at":"2026-05-25T13:38:17.353486Z"}}}